| time (UTC) | temp F | wind direction | speed knots | gust knots | rain 1hr in | rain 24hr in | rain mn in | humidity % | barometer mb |
| 20260506070518 | 52 | 23 | 0.9 | 2.6 | 0.00 | 0.00 | 0.00 | 66 | 1015.6 |
| 20260506061518 | 54 | 310 | 0.0 | 0.9 | 0.00 | 0.00 | 0.00 | 58 | 1015.1 |
| 20260506060519 | 55 | 327 | 0.0 | 0.9 | 0.00 | 0.00 | 0.00 | 59 | 1015.0 |
| 20260506050517 | 59 | 14 | 0.9 | 2.6 | 0.00 | 0.00 | 0.00 | 54 | 1014.5 |
| 20260506044517 | 60 | 3 | 0.9 | 1.7 | 0.00 | 0.00 | 0.00 | 52 | 1014.4 |
| 20260506043518 | 61 | 37 | 0.9 | 1.7 | 0.00 | 0.00 | 0.00 | 52 | 1014.4 |
| 20260506042517 | 61 | 34 | 0.9 | 4.3 | 0.00 | 0.00 | 0.00 | 51 | 1014.3 |
| 20260506041518 | 62 | 3 | 0.9 | 2.6 | 0.00 | 0.00 | 0.00 | 50 | 1014.3 |
| 20260506040518 | 63 | 14 | 1.7 | 3.5 | 0.00 | 0.00 | 0.00 | 52 | 1014.2 |
| 20260506035538 | 64 | 15 | 0.9 | 2.6 | 0.00 | 0.00 | 0.00 | 51 | 1014.1 |
| 20260506034518 | 65 | 23 | 0.9 | 2.6 | 0.00 | 0.00 | 0.00 | 50 | 1013.9 |
| 20260506033518 | 66 | 32 | 1.7 | 2.6 | 0.00 | 0.00 | 0.00 | 48 | 1013.8 |
| 20260506032516 | 67 | 22 | 2.6 | 4.3 | 0.00 | 0.00 | 0.00 | 47 | 1013.7 |
| 20260506031516 | 67 | 14 | 2.6 | 5.2 | 0.00 | 0.00 | 0.00 | 46 | 1013.6 |
| 20260506030519 | 68 | 26 | 2.6 | 4.3 | 0.00 | 0.00 | 0.00 | 46 | 1013.6 |
| 20260506025517 | 69 | 28 | 2.6 | 7.8 | 0.00 | 0.00 | 0.00 | 45 | 1013.4 |
| 20260506024536 | 69 | 31 | 3.5 | 11.3 | 0.00 | 0.00 | 0.00 | 44 | 1013.3 |
| 20260506023519 | 70 | 26 | 2.6 | 6.1 | 0.00 | 0.00 | 0.00 | 43 | 1013.2 |
| 20260506022519 | 70 | 17 | 3.5 | 7.8 | 0.00 | 0.00 | 0.00 | 42 | 1013.2 |
| 20260506021517 | 71 | 11 | 2.6 | 6.1 | 0.00 | 0.00 | 0.00 | 41 | 1013.1 |
| 20260506020516 | 71 | 18 | 3.5 | 7.8 | 0.00 | 0.00 | 0.00 | 40 | 1013.1 |
| 20260506015518 | 71 | 14 | 2.6 | 6.1 | 0.00 | 0.00 | 0.00 | 42 | 1013.1 |
| 20260506014518 | 71 | 19 | 2.6 | 7.0 | 0.00 | 0.00 | 0.00 | 43 | 1013.0 |
| 20260506013519 | 70 | 7 | 3.5 | 7.8 | 0.00 | 0.00 | 0.00 | 43 | 1013.0 |
| 20260506012517 | 70 | 16 | 4.3 | 8.7 | 0.00 | 0.00 | 0.00 | 43 | 1012.9 |
| 20260506011518 | 71 | 14 | 4.3 | 7.8 | 0.00 | 0.00 | 0.00 | 42 | 1012.8 |
| 20260506010518 | 71 | 24 | 4.3 | 9.6 | 0.00 | 0.00 | 0.00 | 41 | 1012.7 |
| 20260506005518 | 73 | 11 | 6.1 | 11.3 | 0.00 | 0.00 | 0.00 | 40 | 1012.6 |
| 20260506004518 | 75 | 46 | 4.3 | 9.6 | 0.00 | 0.00 | 0.00 | 38 | 1012.6 |
| 20260506003518 | 74 | 46 | 3.5 | 10.4 | 0.00 | 0.00 | 0.00 | 37 | 1012.4 |
| 20260506002518 | 74 | 33 | 4.3 | 12.2 | 0.00 | 0.00 | 0.00 | 36 | 1012.4 |
| 20260506001519 | 74 | 41 | 3.5 | 7.0 | 0.00 | 0.00 | 0.00 | 35 | 1012.3 |
| 20260506000518 | 74 | 54 | 3.5 | 8.7 | 0.00 | 0.00 | 0.00 | 35 | 1012.2 |
| 20260505235520 | 75 | 48 | 3.5 | 7.8 | 0.00 | 0.00 | 0.00 | 35 | 1012.1 |
| 20260505234519 | 76 | 48 | 3.5 | 8.7 | 0.00 | 0.00 | 0.00 | 34 | 1012.2 |
| 20260505233516 | 75 | 20 | 4.3 | 10.4 | 0.00 | 0.00 | 0.00 | 33 | 1012.1 |
| 20260505232537 | 75 | 60 | 3.5 | 7.8 | 0.00 | 0.00 | 0.00 | 34 | 1012.3 |
| 20260505231517 | 75 | 85 | 2.6 | 7.8 | 0.00 | 0.00 | 0.00 | 34 | 1012.2 |
| 20260505230537 | 76 | 39 | 1.7 | 5.2 | 0.00 | 0.00 | 0.00 | 34 | 1012.3 |
| 20260505225517 | 76 | 53 | 4.3 | 9.6 | 0.00 | 0.00 | 0.00 | 33 | 1012.3 |
| 20260505224520 | 75 | 48 | 2.6 | 7.8 | 0.00 | 0.00 | 0.00 | 33 | 1012.4 |
| 20260505223520 | 75 | 77 | 3.5 | 15.6 | 0.00 | 0.00 | 0.00 | 34 | 1012.4 |
| 20260505222517 | 75 | 70 | 2.6 | 7.0 | 0.00 | 0.00 | 0.00 | 34 | 1012.4 |
| 20260505221517 | 76 | 87 | 3.5 | 9.6 | 0.00 | 0.00 | 0.00 | 33 | 1012.4 |
| 20260505220518 | 75 | 29 | 3.5 | 6.1 | 0.00 | 0.00 | 0.00 | 34 | 1012.5 |
| 20260505215538 | 76 | 68 | 3.5 | 7.0 | 0.00 | 0.00 | 0.00 | 33 | 1012.6 |
| 20260505214521 | 74 | 51 | 3.5 | 7.8 | 0.00 | 0.00 | 0.00 | 34 | 1012.5 |
| 20260505213518 | 75 | 60 | 2.6 | 7.0 | 0.00 | 0.00 | 0.00 | 34 | 1012.7 |
| 20260505212518 | 75 | 72 | 3.5 | 7.8 | 0.00 | 0.00 | 0.00 | 35 | 1012.7 |
| 20260505211519 | 74 | 49 | 3.5 | 7.8 | 0.00 | 0.00 | 0.00 | 34 | 1012.7 |
| 20260505210519 | 74 | 41 | 4.3 | 7.8 | 0.00 | 0.00 | 0.00 | 35 | 1012.8 |
| 20260505205520 | 75 | 80 | 4.3 | 7.8 | 0.00 | 0.00 | 0.00 | 35 | 1012.7 |
| 20260505204519 | 74 | 51 | 1.7 | 5.2 | 0.00 | 0.00 | 0.00 | 34 | 1012.7 |
| 20260505203520 | 73 | 32 | 5.2 | 11.3 | 0.00 | 0.00 | 0.00 | 36 | 1012.7 |
| 20260505202517 | 74 | 34 | 4.3 | 8.7 | 0.00 | 0.00 | 0.00 | 36 | 1012.8 |
| 20260505201516 | 74 | 78 | 2.6 | 7.8 | 0.00 | 0.00 | 0.00 | 37 | 1012.9 |
| 20260505200520 | 73 | 81 | 2.6 | 9.6 | 0.00 | 0.00 | 0.00 | 38 | 1013.0 |
| 20260505195520 | 72 | 44 | 4.3 | 10.4 | 0.00 | 0.00 | 0.00 | 39 | 1013.0 |
| 20260505194517 | 71 | 45 | 3.5 | 7.0 | 0.00 | 0.00 | 0.00 | 40 | 1013.1 |
| 20260505193538 | 71 | 35 | 4.3 | 10.4 | 0.00 | 0.00 | 0.00 | 41 | 1013.0 |
| 20260505192518 | 71 | 29 | 5.2 | 10.4 | 0.00 | 0.00 | 0.00 | 40 | 1013.1 |
| 20260505191538 | 71 | 67 | 3.5 | 8.7 | 0.00 | 0.00 | 0.00 | 40 | 1013.1 |
| 20260505190518 | 71 | 48 | 2.6 | 7.8 | 0.00 | 0.00 | 0.00 | 40 | 1013.1 |
| 20260505185518 | 70 | 84 | 1.7 | 7.8 | 0.00 | 0.00 | 0.00 | 40 | 1013.1 |
| 20260505184538 | 70 | 41 | 3.5 | 7.0 | 0.00 | 0.00 | 0.00 | 39 | 1013.2 |
| 20260505183518 | 69 | 49 | 2.6 | 7.8 | 0.00 | 0.00 | 0.00 | 40 | 1013.2 |
| 20260505182518 | 69 | 37 | 1.7 | 7.0 | 0.00 | 0.00 | 0.00 | 39 | 1013.1 |
| 20260505181519 | 70 | 224 | 2.6 | 5.2 | 0.00 | 0.00 | 0.00 | 42 | 1013.1 |
| 20260505180539 | 69 | 227 | 1.7 | 6.1 | 0.00 | 0.00 | 0.00 | 43 | 1013.2 |
| 20260505175515 | 68 | 144 | 1.7 | 6.1 | 0.00 | 0.00 | 0.00 | 43 | 1013.2 |
| 20260505174519 | 66 | 85 | 1.7 | 6.1 | 0.00 | 0.00 | 0.00 | 44 | 1013.2 |
| 20260505173539 | 66 | 216 | 2.6 | 7.8 | 0.00 | 0.00 | 0.00 | 44 | 1013.1 |
| 20260505172519 | 64 | 219 | 1.7 | 7.0 | 0.00 | 0.00 | 0.00 | 47 | 1013.1 |
| 20260505171517 | 63 | 17 | 2.6 | 7.0 | 0.00 | 0.00 | 0.00 | 47 | 1013.2 |
| 20260505170536 | 63 | 52 | 2.6 | 5.2 | 0.00 | 0.00 | 0.00 | 46 | 1013.2 |
| 20260505165521 | 63 | 73 | 2.6 | 6.1 | 0.00 | 0.00 | 0.00 | 47 | 1013.2 |
| 20260505164517 | 62 | 13 | 1.7 | 5.2 | 0.00 | 0.00 | 0.00 | 48 | 1013.3 |
| 20260505163517 | 61 | 75 | 1.7 | 7.0 | 0.00 | 0.00 | 0.00 | 51 | 1013.3 |
| 20260505162518 | 59 | 237 | 0.9 | 3.5 | 0.00 | 0.00 | 0.00 | 55 | 1013.2 |
| 20260505161518 | 58 | 230 | 1.7 | 5.2 | 0.00 | 0.00 | 0.00 | 58 | 1013.2 |
| 20260505160517 | 57 | 225 | 1.7 | 5.2 | 0.00 | 0.00 | 0.00 | 59 | 1013.2 |
| 20260505152519 | 52 | 223 | 0.9 | 3.5 | 0.00 | 0.00 | 0.00 | 69 | 1013.2 |
| 20260505151535 | 51 | 226 | 0.9 | 3.5 | 0.00 | 0.00 | 0.00 | 72 | 1013.1 |
| 20260505150518 | 51 | 256 | 0.9 | 3.5 | 0.00 | 0.00 | 0.00 | 72 | 1013.1 |
| 20260505140519 | 46 | 260 | 1.7 | 4.3 | 0.00 | 0.00 | 0.00 | 76 | 1012.3 |
| 20260505124519 | 43 | 347 | 1.7 | 3.5 | 0.00 | 0.00 | 0.00 | 76 | 1011.9 |
| 20260505123519 | 43 | 328 | 0.9 | 3.5 | 0.00 | 0.00 | 0.00 | 75 | 1011.8 |
| 20260505122539 | 43 | 304 | 0.9 | 2.6 | 0.00 | 0.00 | 0.00 | 75 | 1011.7 |
| 20260505121520 | 44 | 352 | 0.0 | 1.7 | 0.00 | 0.00 | 0.00 | 75 | 1011.7 |
| 20260505120517 | 44 | 326 | 0.9 | 1.7 | 0.00 | 0.00 | 0.00 | 74 | 1011.6 |
| 20260505115519 | 44 | 288 | 0.9 | 1.7 | 0.00 | 0.00 | 0.00 | 73 | 1011.6 |
| 20260505114519 | 45 | 351 | 0.9 | 2.6 | 0.00 | 0.00 | 0.00 | 73 | 1011.6 |
| 20260505113516 | 45 | 304 | 0.9 | 3.5 | 0.00 | 0.00 | 0.00 | 72 | 1011.6 |
| 20260505112517 | 44 | 298 | 0.9 | 3.5 | 0.00 | 0.00 | 0.00 | 73 | 1011.5 |
| 20260505111518 | 44 | 8 | 0.9 | 2.6 | 0.00 | 0.00 | 0.00 | 75 | 1011.5 |
| 20260505110537 | 45 | 4 | 0.9 | 1.7 | 0.00 | 0.00 | 0.00 | 74 | 1011.5 |
| 20260505101518 | 47 | 350 | 0.9 | 2.6 | 0.00 | 0.00 | 0.00 | 76 | 1011.4 |
| 20260505100518 | 47 | 16 | 0.9 | 3.5 | 0.00 | 0.00 | 0.00 | 77 | 1011.4 |
| 20260505095518 | 48 | 355 | 0.0 | 1.7 | 0.00 | 0.00 | 0.00 | 77 | 1011.3 |
| 20260505094519 | 47 | 327 | 0.9 | 2.6 | 0.00 | 0.00 | 0.00 | 76 | 1011.3 |
| 20260505093519 | 47 | 356 | 0.0 | 1.7 | 0.00 | 0.00 | 0.00 | 76 | 1011.4 |
| 20260505092539 | 46 | 342 | 0.0 | 1.7 | 0.00 | 0.00 | 0.00 | 77 | 1011.4 |
| 20260505091519 | 46 | 13 | 0.0 | 2.6 | 0.00 | 0.00 | 0.00 | 76 | 1011.4 |
| 20260505090516 | 46 | 3 | 0.9 | 2.6 | 0.00 | 0.00 | 0.00 | 74 | 1011.3 |
| 20260505085519 | 45 | 10 | 0.9 | 3.5 | 0.00 | 0.00 | 0.00 | 73 | 1011.3 |
| 20260505084519 | 46 | 191 | 0.0 | 0.9 | 0.00 | 0.00 | 0.00 | 74 | 1011.3 |
| 20260505083539 | 46 | 28 | 0.9 | 3.5 | 0.00 | 0.00 | 0.00 | 73 | 1011.4 |
| 20260505082516 | 46 | 15 | 1.7 | 3.5 | 0.00 | 0.00 | 0.00 | 70 | 1011.3 |
| 20260505081516 | 47 | 348 | 0.0 | 0.9 | 0.00 | 0.00 | 0.00 | 68 | 1011.3 |
| 20260505080520 | 49 | 340 | 0.0 | 0.9 | 0.00 | 0.00 | 0.00 | 67 | 1011.3 |
| 20260505075520 | 49 | 1 | 1.7 | 3.5 | 0.00 | 0.00 | 0.00 | 68 | 1011.3 |
| 20260505074518 | 50 | 15 | 1.7 | 3.5 | 0.00 | 0.00 | 0.00 | 68 | 1011.4 |
| 20260505073518 | 50 | 344 | 0.0 | 1.7 | 0.00 | 0.00 | 0.00 | 67 | 1011.4 |
| 20260505072518 | 51 | 20 | 0.9 | 5.2 | 0.00 | 0.00 | 0.00 | 65 | 1011.4 |
| 20260505071518 | 52 | 350 | 0.0 | 0.9 | 0.00 | 0.00 | 0.00 | 62 | 1011.3 |